• In Hungary
  • List of Countries
  • For 7 days
  • Water Temperature
  • Satellite Maps
  • Weather Map
  • News
  • Weather Widgets
  • user-avatar
    Login

    Hourly Weather Mikorzyn

    Today, 12 December, Tuesday

    Time Temperature Precipitation Wind Pressure Humidity
    00:00 +5°C° 0 mm 6 mps 736 mmHg 88%
    01:00 +6°C° 0 mm 5 mps 736 mmHg 88%
    02:00 +7°C° 0 mm 6 mps 737 mmHg 87%
    03:00 +7°C° 0 mm 6 mps 737 mmHg 86%
    04:00 +7°C° 0 mm 6 mps 737 mmHg 85%
    05:00 +7°C° 0 mm 6 mps 737 mmHg 85%
    06:00 +7°C° 0 mm 6 mps 738 mmHg 86%
    07:00 +7°C° 0 mm 6 mps 739 mmHg 87%
    08:00 +7°C° 0 mm 6 mps 739 mmHg 85%
    09:00 +7°C° 0 mm 6 mps 740 mmHg 83%
    10:00 +5°C° 0 mm 6 mps 740 mmHg 81%
    11:00 +6°C° 0 mm 7 mps 741 mmHg 75%
    12:00 +6°C° 0 mm 8 mps 742 mmHg 68%
    13:00 +6°C° 0 mm 9 mps 743 mmHg 62%
    14:00 +5°C° 0 mm 9 mps 744 mmHg 62%
    15:00 +3°C° 0 mm 9 mps 745 mmHg 62%
    16:00 +3°C° 0 mm 9 mps 746 mmHg 62%
    17:00 +2°C° 0 mm 9 mps 746 mmHg 62%
    18:00 +1°C° 0 mm 9 mps 747 mmHg 63%
    19:00 +1°C° 0 mm 9 mps 748 mmHg 63%
    20:00 +1°C° 0 mm 9 mps 749 mmHg 64%
    21:00 0°C° 0 mm 9 mps 750 mmHg 65%
    22:00 0°C° 0 mm 9 mps 750 mmHg 66%
    23:00 0°C° 0 mm 8 mps 751 mmHg 69%

    Tomorrow, 13 December, Wednesday

    Time Temperature Precipitation Wind Pressure Humidity
    00:00 0°C° 0 mm 7 mps 752 mmHg 73%
    01:00 0°C° 0 mm 7 mps 753 mmHg 76%
    02:00 -1°C° 0 mm 6 mps 753 mmHg 78%
    03:00 0°C° 0 mm 5 mps 754 mmHg 80%
    04:00 -1°C° 0 mm 4 mps 754 mmHg 82%
    05:00 -1°C° 0 mm 4 mps 755 mmHg 85%
    06:00 -2°C° 0 mm 4 mps 755 mmHg 88%
    07:00 -1°C° 0 mm 3 mps 755 mmHg 90%
    08:00 -2°C° 0 mm 4 mps 756 mmHg 89%
    09:00 -1°C° 0 mm 4 mps 756 mmHg 87%
    10:00 -1°C° 0 mm 4 mps 756 mmHg 85%
    11:00 0°C° 0 mm 4 mps 756 mmHg 81%
    12:00 0°C° 0 mm 4 mps 755 mmHg 77%
    13:00 +1°C° 0 mm 5 mps 754 mmHg 73%
    14:00 0°C° 0 mm 4 mps 754 mmHg 75%
    15:00 -1°C° 0 mm 4 mps 753 mmHg 77%
    16:00 -1°C° 0 mm 4 mps 753 mmHg 78%
    17:00 -1°C° 0 mm 5 mps 752 mmHg 77%
    18:00 -1°C° 0 mm 5 mps 752 mmHg 76%
    19:00 -2°C° 0 mm 6 mps 751 mmHg 74%
    20:00 -2°C° 0 mm 6 mps 750 mmHg 73%
    21:00 -2°C° 0 mm 6 mps 749 mmHg 72%
    22:00 -2°C° 0 mm 6 mps 748 mmHg 71%
    23:00 -2°C° 0 mm 7 mps 747 mmHg 68%

    Day after tomorrow, 14 December, Thursday

    Time Temperature Precipitation Wind Pressure Humidity
    00:00 -2°C° 0 mm 7 mps 746 mmHg 65%
    01:00 -1°C° 0 mm 7 mps 745 mmHg 62%
    02:00 -1°C° 0.1 mm 7 mps 744 mmHg 64%
    03:00 -1°C° 0.1 mm 7 mps 743 mmHg 66%
    04:00 0°C° 0.1 mm 7 mps 742 mmHg 68%
    05:00 0°C° 0.3 mm 8 mps 741 mmHg 68%
    06:00 0°C° 0.3 mm 8 mps 741 mmHg 69%
    07:00 +1°C° 0.3 mm 8 mps 740 mmHg 70%
    08:00 +1°C° 0.1 mm 8 mps 740 mmHg 72%
    09:00 +3°C° 0.1 mm 7 mps 740 mmHg 75%
    10:00 +3°C° 0.1 mm 7 mps 740 mmHg 77%
    11:00 +2°C° 0.1 mm 8 mps 739 mmHg 75%
    12:00 +4°C° 0.1 mm 8 mps 739 mmHg 73%
    13:00 +4°C° 0.1 mm 8 mps 739 mmHg 71%
    14:00 +2°C° 0.1 mm 8 mps 739 mmHg 67%
    15:00 +1°C° 0.1 mm 9 mps 739 mmHg 63%
    16:00 +1°C° 0.1 mm 9 mps 739 mmHg 59%
    17:00 0°C° 0 mm 8 mps 740 mmHg 61%
    18:00 0°C° 0 mm 8 mps 740 mmHg 63%
    19:00 0°C° 0 mm 7 mps 741 mmHg 65%
    20:00 -1°C° 0 mm 6 mps 741 mmHg 66%
    21:00 -1°C° 0 mm 6 mps 742 mmHg 67%
    22:00 -1°C° 0 mm 5 mps 742 mmHg 68%
    23:00 -1°C° 0 mm 4 mps 741 mmHg 69%

    15 December, Friday

    Time Temperature Precipitation Wind Pressure Humidity
    00:00 -1°C° 0 mm 4 mps 741 mmHg 69%
    01:00 0°C° 0 mm 3 mps 741 mmHg 69%
    02:00 -1°C° 0.8 mm 4 mps 740 mmHg 73%
    03:00 -1°C° 0.8 mm 4 mps 739 mmHg 76%
    04:00 0°C° 0.8 mm 4 mps 738 mmHg 79%
    05:00 0°C° 1.2 mm 5 mps 737 mmHg 83%
    06:00 0°C° 1.2 mm 5 mps 737 mmHg 88%
    07:00 +1°C° 1.2 mm 5 mps 737 mmHg 92%
    08:00 0°C° 0.4 mm 5 mps 737 mmHg 91%
    09:00 0°C° 0.4 mm 5 mps 737 mmHg 90%
    10:00 -1°C° 0.4 mm 6 mps 737 mmHg 89%
    11:00 -1°C° 0.5 mm 6 mps 738 mmHg 89%
    12:00 -1°C° 0.5 mm 7 mps 739 mmHg 88%
    13:00 -1°C° 0.5 mm 7 mps 740 mmHg 88%
    14:00 -1°C° 0 mm 6 mps 741 mmHg 88%
    15:00 -1°C° 0 mm 5 mps 741 mmHg 89%
    16:00 -1°C° 0 mm 4 mps 742 mmHg 89%
    17:00 -1°C° 0 mm 4 mps 742 mmHg 89%
    18:00 -2°C° 0 mm 4 mps 743 mmHg 88%
    19:00 -1°C° 0 mm 3 mps 743 mmHg 88%
    20:00 -1°C° 0 mm 3 mps 743 mmHg 88%
    21:00 -1°C° 0 mm 3 mps 743 mmHg 88%
    22:00 -1°C° 0 mm 3 mps 743 mmHg 88%
    23:00 -1°C° 0 mm 3 mps 743 mmHg 88%

    16 December, Saturday

    Time Temperature Precipitation Wind Pressure Humidity
    00:00 -1°C° 0 mm 3 mps 743 mmHg 89%
    01:00 -1°C° 0 mm 3 mps 743 mmHg 90%
    02:00 -1°C° 0 mm 3 mps 743 mmHg 90%
    03:00 -1°C° 0 mm 3 mps 743 mmHg 91%
    04:00 -1°C° 0 mm 3 mps 743 mmHg 91%
    05:00 -1°C° 0.1 mm 3 mps 743 mmHg 91%
    06:00 -1°C° 0.1 mm 3 mps 743 mmHg 91%
    07:00 0°C° 0.1 mm 3 mps 744 mmHg 91%
    08:00 0°C° 0.1 mm 3 mps 744 mmHg 92%
    09:00 0°C° 0.1 mm 3 mps 744 mmHg 93%
    10:00 0°C° 0.1 mm 3 mps 745 mmHg 93%
    11:00 -1°C° 0 mm 4 mps 745 mmHg 92%
    12:00 0°C° 0 mm 4 mps 745 mmHg 92%
    13:00 0°C° 0 mm 4 mps 745 mmHg 91%
    14:00 0°C° 0 mm 4 mps 746 mmHg 91%
    15:00 -1°C° 0 mm 4 mps 746 mmHg 91%
    16:00 -1°C° 0 mm 4 mps 747 mmHg 91%
    17:00 -1°C° 0 mm 4 mps 747 mmHg 90%
    18:00 -1°C° 0 mm 4 mps 748 mmHg 89%
    19:00 -1°C° 0 mm 4 mps 748 mmHg 88%
    20:00 -1°C° 0 mm 4 mps 748 mmHg 88%
    21:00 -1°C° 0 mm 4 mps 749 mmHg 88%
    22:00 -1°C° 0 mm 5 mps 749 mmHg 88%
    23:00 -1°C° 0 mm 5 mps 749 mmHg 88%

    17 December, Sunday

    Time Temperature Precipitation Wind Pressure Humidity
    00:00 -1°C° 0 mm 5 mps 749 mmHg 89%
    01:00 -1°C° 0 mm 5 mps 749 mmHg 89%
    02:00 -1°C° 0.1 mm 5 mps 749 mmHg 89%
    03:00 -1°C° 0.1 mm 5 mps 750 mmHg 88%
    04:00 -1°C° 0.1 mm 5 mps 750 mmHg 88%
    05:00 -1°C° 0.1 mm 5 mps 750 mmHg 88%
    06:00 -1°C° 0.1 mm 5 mps 750 mmHg 88%
    07:00 -1°C° 0.1 mm 5 mps 751 mmHg 88%
    08:00 -1°C° 0.1 mm 5 mps 751 mmHg 86%
    09:00 -1°C° 0.1 mm 5 mps 752 mmHg 85%
    10:00 -2°C° 0.1 mm 6 mps 752 mmHg 83%
    11:00 -2°C° 0 mm 6 mps 752 mmHg 82%
    12:00 -2°C° 0 mm 6 mps 753 mmHg 81%
    13:00 -2°C° 0 mm 6 mps 753 mmHg 81%
    14:00 -1°C° 0.1 mm 5 mps 754 mmHg 82%
    15:00 -1°C° 0.1 mm 5 mps 754 mmHg 84%
    16:00 -1°C° 0.1 mm 5 mps 755 mmHg 85%
    17:00 -1°C° 0.1 mm 5 mps 755 mmHg 86%
    18:00 -2°C° 0.1 mm 5 mps 756 mmHg 87%
    19:00 -2°C° 0.1 mm 5 mps 756 mmHg 88%
    20:00 -2°C° 0 mm 5 mps 757 mmHg 89%
    21:00 -2°C° 0 mm 5 mps 757 mmHg 89%
    22:00 -2°C° 0 mm 5 mps 758 mmHg 90%
    23:00 -2°C° 0 mm 4 mps 758 mmHg 91%
    Show more